Location: Makanda
(37.6176°N, 89.2090°W)
Time: 15:41:08
(UTC+00:00)

ADEOS Rocket - Pass Details

Date: 23 September 2019
Orbit: 859 x 1306 km, 98.7° (Epoch: 20 October)

Event Time Altitude Azimuth Distance (km) Brightness Sun altitude
Rises 01:53:13 0° 13° (NNE) 4,158 6.4 -24.0°
Reaches altitude 10° 01:55:49 10° 14° (NNE) 3,231 5.8 -24.5°
Maximum altitude 02:03:25 86° 103° (ESE) 1,304 3.5 -25.9°
Drops below altitude 10° 02:11:13 10° 193° (SSW) 3,309 5.6 -27.3°
Sets 02:13:54 0° 194° (SSW) 4,263 6.2 -27.8°
